EN

Hourly Weather Bury Saint Edmunds

Today, 15 January, Friday

Time Temperature Precipitation Wind Pressure Humidity
00:00 0°C° 0 mm 3 mps 765 mmHg 90%
01:00 0°C° 0 mm 3 mps 765 mmHg 91%
02:00 0°C° 0 mm 3 mps 766 mmHg 91%
03:00 +1°C° 0 mm 2 mps 766 mmHg 92%
04:00 +1°C° 0 mm 2 mps 766 mmHg 92%
05:00 +1°C° 0 mm 2 mps 767 mmHg 92%
06:00 +1°C° 0 mm 1 mps 767 mmHg 94%
07:00 +2°C° 0 mm 1 mps 768 mmHg 93%
08:00 +2°C° 0 mm 1 mps 768 mmHg 93%
09:00 +2°C° 0 mm 1 mps 769 mmHg 93%
10:00 +2°C° 0 mm 1 mps 769 mmHg 92%
11:00 +3°C° 0 mm 1 mps 769 mmHg 90%
12:00 +3°C° 0 mm 1 mps 769 mmHg 89%
13:00 +3°C° 0 mm 1 mps 769 mmHg 89%
14:00 +3°C° 0 mm 1 mps 769 mmHg 90%
15:00 +3°C° 0 mm 1 mps 769 mmHg 91%
16:00 +2°C° 0 mm 1 mps 769 mmHg 92%
17:00 +1°C° 0 mm 1 mps 769 mmHg 93%
18:00 +1°C° 0 mm 1 mps 769 mmHg 94%
19:00 +1°C° 0 mm 1 mps 768 mmHg 93%
20:00 0°C° 0 mm 1 mps 768 mmHg 93%
21:00 -2°C° 0 mm 2 mps 768 mmHg 92%
22:00 -1°C° 0 mm 2 mps 768 mmHg 91%
23:00 -1°C° 0 mm 3 mps 767 mmHg 90%

Tomorrow, 16 January, Saturday

Time Temperature Precipitation Wind Pressure Humidity
00:00 -1°C° 0 mm 3 mps 767 mmHg 88%
01:00 -1°C° 0 mm 4 mps 766 mmHg 87%
02:00 -1°C° 0 mm 4 mps 766 mmHg 85%
03:00 -1°C° 0 mm 5 mps 765 mmHg 84%
04:00 -2°C° 0.1 mm 6 mps 764 mmHg 86%
05:00 -2°C° 0.1 mm 6 mps 764 mmHg 88%
06:00 -2°C° 0.1 mm 7 mps 763 mmHg 90%
07:00 -2°C° 0.7 mm 7 mps 762 mmHg 92%
08:00 -2°C° 0.7 mm 8 mps 761 mmHg 93%
09:00 -2°C° 0.7 mm 8 mps 760 mmHg 95%
10:00 -1°C° 1.7 mm 8 mps 759 mmHg 95%
11:00 0°C° 1.7 mm 8 mps 758 mmHg 95%
12:00 +2°C° 1.7 mm 7 mps 758 mmHg 94%
13:00 +2°C° 0.5 mm 6 mps 757 mmHg 95%
14:00 +2°C° 0.5 mm 5 mps 757 mmHg 96%
15:00 +4°C° 0.5 mm 3 mps 756 mmHg 97%
16:00 +3°C° 0 mm 4 mps 757 mmHg 96%
17:00 +3°C° 0 mm 4 mps 757 mmHg 95%
18:00 +1°C° 0 mm 4 mps 757 mmHg 95%
19:00 +1°C° 0 mm 4 mps 758 mmHg 94%
20:00 +1°C° 0 mm 5 mps 759 mmHg 93%
21:00 +1°C° 0 mm 5 mps 759 mmHg 91%
22:00 +1°C° 0 mm 5 mps 759 mmHg 92%
23:00 0°C° 0 mm 4 mps 759 mmHg 92%

Day after tomorrow, 17 January, Sunday

Time Temperature Precipitation Wind Pressure Humidity
00:00 0°C° 0 mm 4 mps 760 mmHg 92%
01:00 0°C° 0 mm 4 mps 760 mmHg 92%
02:00 0°C° 0 mm 4 mps 760 mmHg 92%
03:00 0°C° 0 mm 4 mps 760 mmHg 92%
04:00 0°C° 0 mm 4 mps 760 mmHg 91%
05:00 0°C° 0 mm 4 mps 760 mmHg 91%
06:00 -1°C° 0 mm 5 mps 761 mmHg 91%
07:00 -1°C° 0 mm 5 mps 761 mmHg 91%
08:00 -1°C° 0 mm 5 mps 761 mmHg 92%
09:00 0°C° 0 mm 4 mps 762 mmHg 92%
10:00 +1°C° 0 mm 5 mps 762 mmHg 89%
11:00 +2°C° 0 mm 5 mps 763 mmHg 87%
12:00 +3°C° 0 mm 5 mps 763 mmHg 84%
13:00 +3°C° 0 mm 5 mps 763 mmHg 85%
14:00 +4°C° 0 mm 4 mps 763 mmHg 87%
15:00 +3°C° 0 mm 4 mps 763 mmHg 88%
16:00 +3°C° 0 mm 4 mps 763 mmHg 90%
17:00 +2°C° 0 mm 3 mps 764 mmHg 91%
18:00 +2°C° 0 mm 3 mps 764 mmHg 93%
19:00 +2°C° 0 mm 3 mps 764 mmHg 93%
20:00 +2°C° 0 mm 3 mps 764 mmHg 93%
21:00 +1°C° 0 mm 3 mps 764 mmHg 93%
22:00 +1°C° 0 mm 3 mps 764 mmHg 93%
23:00 +1°C° 0 mm 3 mps 764 mmHg 93%

18 January, Monday

Time Temperature Precipitation Wind Pressure Humidity
00:00 0°C° 0 mm 3 mps 764 mmHg 93%
01:00 0°C° 0 mm 3 mps 764 mmHg 93%
02:00 0°C° 0 mm 3 mps 764 mmHg 93%
03:00 0°C° 0 mm 3 mps 764 mmHg 93%
04:00 0°C° 0 mm 3 mps 764 mmHg 93%
05:00 0°C° 0 mm 3 mps 764 mmHg 93%
06:00 0°C° 0 mm 3 mps 764 mmHg 92%
07:00 0°C° 0 mm 3 mps 764 mmHg 91%
08:00 0°C° 0 mm 3 mps 764 mmHg 90%
09:00 0°C° 0 mm 3 mps 764 mmHg 89%
10:00 +1°C° 0 mm 3 mps 764 mmHg 87%
11:00 +1°C° 0 mm 4 mps 764 mmHg 85%
12:00 +3°C° 0 mm 4 mps 764 mmHg 83%
13:00 +3°C° 0 mm 4 mps 763 mmHg 85%
14:00 +3°C° 0 mm 4 mps 762 mmHg 86%
15:00 +3°C° 0 mm 3 mps 762 mmHg 87%
16:00 +3°C° 0 mm 4 mps 761 mmHg 88%
17:00 +3°C° 0 mm 4 mps 761 mmHg 89%
18:00 +1°C° 0 mm 5 mps 761 mmHg 90%
19:00 +2°C° 0.1 mm 5 mps 760 mmHg 89%
20:00 +2°C° 0.1 mm 6 mps 759 mmHg 88%
21:00 +2°C° 0.1 mm 7 mps 758 mmHg 87%
22:00 +1°C° 0.9 mm 8 mps 757 mmHg 88%
23:00 +2°C° 0.9 mm 9 mps 756 mmHg 90%

19 January, Tuesday

Time Temperature Precipitation Wind Pressure Humidity
00:00 +2°C° 0.9 mm 10 mps 755 mmHg 92%
01:00 +3°C° 0.3 mm 9 mps 754 mmHg 92%
02:00 +5°C° 0.3 mm 9 mps 753 mmHg 92%
03:00 +6°C° 0.3 mm 9 mps 753 mmHg 92%
04:00 +7°C° 0 mm 9 mps 752 mmHg 91%
05:00 +7°C° 0 mm 8 mps 752 mmHg 90%
06:00 +7°C° 0 mm 8 mps 752 mmHg 90%
07:00 +7°C° 0 mm 8 mps 752 mmHg 89%
08:00 +7°C° 0 mm 8 mps 751 mmHg 88%
09:00 +7°C° 0 mm 8 mps 751 mmHg 87%
10:00 +7°C° 0 mm 8 mps 751 mmHg 86%
11:00 +7°C° 0 mm 8 mps 750 mmHg 85%
12:00 +9°C° 0 mm 8 mps 750 mmHg 85%
13:00 +8°C° 0 mm 9 mps 749 mmHg 84%
14:00 +8°C° 0 mm 9 mps 748 mmHg 83%
15:00 +8°C° 0 mm 9 mps 747 mmHg 83%
16:00 +8°C° 0.1 mm 9 mps 747 mmHg 83%
17:00 +8°C° 0.1 mm 10 mps 746 mmHg 84%
18:00 +8°C° 0.1 mm 10 mps 746 mmHg 84%
19:00 +7°C° 0.3 mm 11 mps 745 mmHg 85%
20:00 +7°C° 0.3 mm 11 mps 744 mmHg 85%
21:00 +7°C° 0.3 mm 11 mps 744 mmHg 86%
22:00 +7°C° 0.3 mm 11 mps 743 mmHg 86%
23:00 +7°C° 0.3 mm 11 mps 742 mmHg 86%

20 January, Wednesday

Time Temperature Precipitation Wind Pressure Humidity
00:00 +7°C° 0.3 mm 11 mps 742 mmHg 87%
01:00 +8°C° 0.5 mm 11 mps 741 mmHg 86%
02:00 +8°C° 0.5 mm 11 mps 740 mmHg 85%
03:00 +8°C° 0.5 mm 12 mps 739 mmHg 85%
04:00 +8°C° 0.1 mm 12 mps 739 mmHg 85%
05:00 +8°C° 0.1 mm 11 mps 738 mmHg 85%
06:00 +8°C° 0.1 mm 11 mps 738 mmHg 85%
07:00 +8°C° 1.1 mm 10 mps 738 mmHg 85%
08:00 +7°C° 1.1 mm 9 mps 738 mmHg 86%
09:00 +6°C° 1.1 mm 8 mps 737 mmHg 87%
10:00 +6°C° 0.5 mm 7 mps 738 mmHg 84%
11:00 +5°C° 0.5 mm 7 mps 738 mmHg 81%
12:00 +5°C° 0.5 mm 7 mps 738 mmHg 79%
13:00 +4°C° 0.1 mm 6 mps 738 mmHg 79%
14:00 +4°C° 0.1 mm 6 mps 738 mmHg 78%
15:00 +3°C° 0.1 mm 6 mps 738 mmHg 78%
16:00 +3°C° 0 mm 6 mps 738 mmHg 79%
17:00 +3°C° 0 mm 5 mps 739 mmHg 81%
18:00 +2°C° 0 mm 5 mps 739 mmHg 82%
19:00 +2°C° 0 mm 6 mps 740 mmHg 82%
20:00 +2°C° 0 mm 6 mps 740 mmHg 83%
21:00 +2°C° 0 mm 7 mps 740 mmHg 84%
22:00 +2°C° 0 mm 7 mps 740 mmHg 83%
23:00 +2°C° 0 mm 7 mps 741 mmHg 83%
Show more